When you browse on this site, cookies collect data to enhance your experience and personalize the content and advertising you see.
Visit our Privacy Policy to learn more. By continuing to use the site, you agree to this use of cookies and data.
  • In Hungary
  • List of Countries
  • For 7 days
  • Water Temperature
  • Weather Map
  • News
  • Weather Widgets
  • user-avatar
    Login

    Hourly Weather Komissarovka

    Today, 15 September, Sunday

    Time Temperature Precipitation Wind Pressure Humidity
    00:00 +8°C° 0 mm 3 mps 744 mmHg 79%
    01:00 +8°C° 0 mm 3 mps 744 mmHg 80%
    02:00 +8°C° 0 mm 3 mps 744 mmHg 81%
    03:00 +8°C° 0 mm 3 mps 743 mmHg 83%
    04:00 +7°C° 0.1 mm 3 mps 743 mmHg 86%
    05:00 +7°C° 0.1 mm 3 mps 744 mmHg 89%
    06:00 +6°C° 0.1 mm 4 mps 744 mmHg 92%
    07:00 +7°C° 0.1 mm 4 mps 744 mmHg 87%
    08:00 +8°C° 0.1 mm 4 mps 744 mmHg 83%
    09:00 +9°C° 0.1 mm 5 mps 744 mmHg 79%
    10:00 +10°C° 0 mm 5 mps 744 mmHg 71%
    11:00 +12°C° 0 mm 5 mps 743 mmHg 63%
    12:00 +14°C° 0 mm 5 mps 743 mmHg 55%
    13:00 +14°C° 0 mm 5 mps 743 mmHg 52%
    14:00 +14°C° 0 mm 6 mps 743 mmHg 50%
    15:00 +14°C° 0 mm 6 mps 743 mmHg 47%
    16:00 +14°C° 0 mm 5 mps 742 mmHg 51%
    17:00 +13°C° 0 mm 4 mps 742 mmHg 55%
    18:00 +12°C° 0 mm 4 mps 741 mmHg 59%
    19:00 +12°C° 0 mm 4 mps 741 mmHg 59%
    20:00 +12°C° 0 mm 5 mps 740 mmHg 59%
    21:00 +12°C° 0 mm 5 mps 740 mmHg 60%
    22:00 +10°C° 0.1 mm 6 mps 739 mmHg 66%
    23:00 +10°C° 0.1 mm 7 mps 739 mmHg 73%

    Tomorrow, 16 September, Monday

    Time Temperature Precipitation Wind Pressure Humidity
    00:00 +9°C° 0.1 mm 8 mps 738 mmHg 79%
    01:00 +9°C° 0.5 mm 8 mps 738 mmHg 80%
    02:00 +9°C° 0.5 mm 8 mps 737 mmHg 81%
    03:00 +9°C° 0.5 mm 7 mps 737 mmHg 82%
    04:00 +9°C° 0.1 mm 7 mps 736 mmHg 81%
    05:00 +9°C° 0.1 mm 7 mps 735 mmHg 81%
    06:00 +9°C° 0.1 mm 7 mps 735 mmHg 80%
    07:00 +10°C° 0.3 mm 8 mps 734 mmHg 81%
    08:00 +10°C° 0.3 mm 8 mps 734 mmHg 82%
    09:00 +10°C° 0.3 mm 9 mps 733 mmHg 82%
    10:00 +10°C° 0.1 mm 9 mps 733 mmHg 80%
    11:00 +11°C° 0.1 mm 9 mps 733 mmHg 79%
    12:00 +11°C° 0.1 mm 9 mps 733 mmHg 77%
    13:00 +11°C° 0.3 mm 9 mps 733 mmHg 75%
    14:00 +12°C° 0.3 mm 9 mps 732 mmHg 74%
    15:00 +12°C° 0.3 mm 8 mps 732 mmHg 72%
    16:00 +12°C° 0 mm 7 mps 732 mmHg 71%
    17:00 +11°C° 0 mm 6 mps 732 mmHg 70%
    18:00 +11°C° 0 mm 6 mps 732 mmHg 68%
    19:00 +10°C° 0 mm 6 mps 732 mmHg 70%
    20:00 +10°C° 0 mm 6 mps 732 mmHg 72%
    21:00 +9°C° 0 mm 5 mps 732 mmHg 74%
    22:00 +9°C° 0 mm 6 mps 732 mmHg 74%
    23:00 +9°C° 0 mm 6 mps 732 mmHg 74%

    Day after tomorrow, 17 September, Tuesday

    Time Temperature Precipitation Wind Pressure Humidity
    00:00 +9°C° 0 mm 6 mps 732 mmHg 74%
    01:00 +9°C° 0 mm 6 mps 732 mmHg 74%
    02:00 +9°C° 0 mm 6 mps 732 mmHg 75%
    03:00 +9°C° 0 mm 6 mps 732 mmHg 75%
    04:00 +8°C° 0 mm 6 mps 731 mmHg 77%
    05:00 +8°C° 0 mm 6 mps 731 mmHg 79%
    06:00 +7°C° 0 mm 6 mps 731 mmHg 81%
    07:00 +8°C° 0 mm 6 mps 731 mmHg 76%
    08:00 +9°C° 0 mm 7 mps 731 mmHg 71%
    09:00 +9°C° 0 mm 7 mps 731 mmHg 66%
    10:00 +10°C° 0 mm 7 mps 731 mmHg 63%
    11:00 +10°C° 0 mm 7 mps 731 mmHg 60%
    12:00 +11°C° 0 mm 7 mps 731 mmHg 56%
    13:00 +11°C° 0 mm 7 mps 731 mmHg 55%
    14:00 +11°C° 0 mm 7 mps 731 mmHg 54%
    15:00 +12°C° 0 mm 7 mps 731 mmHg 53%
    16:00 +11°C° 0 mm 6 mps 731 mmHg 58%
    17:00 +10°C° 0 mm 6 mps 730 mmHg 63%
    18:00 +10°C° 0 mm 5 mps 730 mmHg 68%
    19:00 +9°C° 0 mm 5 mps 730 mmHg 71%
    20:00 +9°C° 0 mm 5 mps 730 mmHg 73%
    21:00 +8°C° 0 mm 4 mps 730 mmHg 75%
    22:00 +7°C° 0 mm 4 mps 730 mmHg 78%
    23:00 +7°C° 0 mm 4 mps 730 mmHg 82%

    18 September, Wednesday

    Time Temperature Precipitation Wind Pressure Humidity
    00:00 +6°C° 0 mm 4 mps 730 mmHg 85%
    01:00 +6°C° 0 mm 4 mps 730 mmHg 86%
    02:00 +5°C° 0 mm 4 mps 730 mmHg 88%
    03:00 +5°C° 0 mm 4 mps 730 mmHg 89%
    04:00 +5°C° 0 mm 3 mps 729 mmHg 89%
    05:00 +5°C° 0 mm 3 mps 729 mmHg 88%
    06:00 +5°C° 0 mm 3 mps 729 mmHg 88%
    07:00 +5°C° 0.6 mm 4 mps 729 mmHg 88%
    08:00 +6°C° 0.6 mm 4 mps 729 mmHg 88%
    09:00 +6°C° 0.6 mm 4 mps 729 mmHg 88%
    10:00 +7°C° 0.5 mm 4 mps 729 mmHg 86%
    11:00 +7°C° 0.5 mm 4 mps 729 mmHg 84%
    12:00 +8°C° 0.5 mm 4 mps 729 mmHg 82%
    13:00 +8°C° 0.9 mm 4 mps 729 mmHg 83%
    14:00 +7°C° 0.9 mm 5 mps 729 mmHg 83%
    15:00 +7°C° 0.9 mm 6 mps 729 mmHg 84%
    16:00 +7°C° 0.5 mm 5 mps 729 mmHg 85%
    17:00 +7°C° 0.5 mm 5 mps 729 mmHg 85%
    18:00 +7°C° 0.5 mm 5 mps 730 mmHg 86%
    19:00 +7°C° 0.1 mm 5 mps 730 mmHg 87%
    20:00 +7°C° 0.1 mm 5 mps 731 mmHg 87%
    21:00 +7°C° 0.1 mm 6 mps 732 mmHg 87%
    22:00 +5°C° 0 mm 6 mps 732 mmHg 89%
    23:00 +6°C° 0 mm 5 mps 733 mmHg 91%

    19 September, Thursday

    Time Temperature Precipitation Wind Pressure Humidity
    00:00 +5°C° 0 mm 5 mps 734 mmHg 92%
    01:00 +5°C° 0 mm 5 mps 734 mmHg 93%
    02:00 +5°C° 0 mm 5 mps 735 mmHg 94%
    03:00 +3°C° 0 mm 5 mps 735 mmHg 95%
    04:00 +4°C° 0 mm 4 mps 736 mmHg 95%
    05:00 +4°C° 0 mm 4 mps 736 mmHg 94%
    06:00 +4°C° 0 mm 4 mps 737 mmHg 94%
    07:00 +5°C° 0 mm 4 mps 737 mmHg 92%
    08:00 +5°C° 0 mm 4 mps 738 mmHg 90%
    09:00 +6°C° 0 mm 4 mps 738 mmHg 88%
    10:00 +7°C° 0 mm 4 mps 738 mmHg 83%
    11:00 +9°C° 0 mm 3 mps 739 mmHg 78%
    12:00 +10°C° 0 mm 3 mps 739 mmHg 73%
    13:00 +10°C° 0.2 mm 3 mps 739 mmHg 69%
    14:00 +11°C° 0.2 mm 3 mps 738 mmHg 66%
    15:00 +12°C° 0.2 mm 3 mps 738 mmHg 63%
    16:00 +11°C° 0.2 mm 3 mps 738 mmHg 67%
    17:00 +10°C° 0.2 mm 2 mps 738 mmHg 72%
    18:00 +9°C° 0.2 mm 2 mps 738 mmHg 76%
    19:00 +9°C° 0.1 mm 2 mps 739 mmHg 78%
    20:00 +8°C° 0.1 mm 2 mps 739 mmHg 80%
    21:00 +8°C° 0.1 mm 1 mps 739 mmHg 82%
    22:00 +8°C° 0.1 mm 1 mps 739 mmHg 82%
    23:00 +8°C° 0.1 mm 1 mps 740 mmHg 83%

    20 September, Friday

    Time Temperature Precipitation Wind Pressure Humidity
    00:00 +8°C° 0.1 mm 1 mps 740 mmHg 83%
    01:00 +7°C° 0.1 mm 2 mps 740 mmHg 85%
    02:00 +6°C° 0.1 mm 2 mps 740 mmHg 86%
    03:00 +5°C° 0.1 mm 3 mps 740 mmHg 88%
    04:00 +5°C° 0.1 mm 3 mps 740 mmHg 88%
    05:00 +5°C° 0.1 mm 2 mps 741 mmHg 88%
    06:00 +5°C° 0.1 mm 2 mps 741 mmHg 88%
    07:00 +6°C° 0 mm 2 mps 741 mmHg 84%
    08:00 +6°C° 0 mm 2 mps 741 mmHg 80%
    09:00 +6°C° 0 mm 2 mps 742 mmHg 76%
    10:00 +7°C° 0 mm 2 mps 742 mmHg 69%
    11:00 +8°C° 0 mm 2 mps 742 mmHg 63%
    12:00 +9°C° 0 mm 3 mps 743 mmHg 56%
    13:00 +9°C° 0 mm 2 mps 743 mmHg 55%
    14:00 +9°C° 0 mm 2 mps 742 mmHg 54%
    15:00 +9°C° 0 mm 2 mps 742 mmHg 53%
    16:00 +9°C° 0 mm 2 mps 742 mmHg 55%
    17:00 +9°C° 0 mm 2 mps 743 mmHg 57%
    18:00 +9°C° 0 mm 1 mps 743 mmHg 58%
    19:00 +8°C° 0 mm 1 mps 743 mmHg 59%
    20:00 +8°C° 0 mm 1 mps 743 mmHg 60%
    21:00 +7°C° 0 mm 1 mps 743 mmHg 61%
    22:00 +6°C° 0 mm 1 mps 743 mmHg 62%
    23:00 +6°C° 0 mm 1 mps 743 mmHg 64%
    Show more